DECAYED

OBJECT D, 57427 (Decayed)

Orbit data source: Space-Track

You're viewing an Uncataloged Satellite

Recently launched and/or uncataloged satellites may have evolving metadata. Metadata may include but not limited to: Owner, Maufacturer, Bus, Motor, and Mission.

OBJECT D, 57427 was a satellite owned by CNSA (CN) in LEO that was launched on Sun, 23 Jul 2023 UTC via a Chang Zheng 2D launch vehicle from the Taiyaun Space Center, China (TSC). Unknown objects in Earth's orbit typically refer to objects detected orbiting the Earth but have not yet been identified or cataloged. These objects could be anything from previously untracked satellites, spent rocket stages, debris from satellite collisions, or even natural meteoroids temporarily captured by Earth's gravity. This object's orbit decayed before it could be identified.

Not visible in the next 10 days
OBJECT D details
Identifier
57427, 2023-104D
Orbit
Decayed
Last TLE update3 months ago
Origin
Flag of CNCNSA (CN / PRC)
ManufacturerCAST
MissionDecayed Commercial Communications
Bus & MotorUnknown
MassUnknown
Launch date (UTC)
2023-07-23 (1 year ago)
Launch vehicle
Chang Zheng 2D
Launch site
Taiyaun Space Center, China (TSC)
Object typeUnknown
Shape & HBRBox + 1 Pan, 10 m
Radar Cross Section16.383 m², Large (>1 m²)

Expand to show TLE details & history

TLE from 3 months ago
0 OBJECT D
1 57427U 23104D   24276.29366333  .28605412  25133-5  66733-3 0  9996
2 57427  97.3105 352.1805 0010855 272.1620 133.6895 16.45580245 67362
Epoch: 2024-10-02T07:02Z
Definitive object data (Epoch: 2024-10-02T07:02:52.511Z)
Latitude45.56696°
Longitude-132.50879°
Altitude162.991 km
Speed7.81 km/s
True Right ascension22h 58m 49s
True Declination45° 22' 46"
Sunlit
Object was in full shadow at TLE epoch
Visualization observer readout
Observer readout values are unavailable because the object's trajectory could not be propagated. This is usually caused when the trajectory data is faulty or the object's orbit has decayed.
Visualization observer readout
Observer readout values are unavailable because the object's trajectory could not be propagated. This is usually caused when the trajectory data is faulty or the object's orbit has decayed.
Orbital elements
Apogee altitude154.88 km
Perigee altitude140.713 km
Semi-major axis6,525.934 km
Eccentricity0.0010855
Inclination97.3105°
RAAN352.1805°
Arg. of periapsis272.162°
True anomaly133.77936°
Mean anomaly133.6895°
Eccentric anomaly133.73444°
Mean motion4.11698 °/min
BSTAR0.00066733
Orbital period87.44 mins
Loading maneuver chart data...
Loading historical data...
Loading historical data...
Loading historical data...
Loading historical data...
Loading historical data...
Loading historical data...
Loading historical data...

OBJECT D Visibility forecast

Observer location: undefined°, undefined

This satellite is decayed
Span
Click to sort rows by Start time (UTC) header in descending order
Start Az.
Max El. time (UTC)
Max El. Az.
Max El.
End time (UTC)
End Az.
|